User: anonymous
Location: Fort Wayne
(41.1310°N, 85.1290°W)
Time: 09:58:54
(UTC-04:00)
Language:

Cosmos 2056 Rocket - Orbit

View from above orbital plane
View from above orbital plane
View from above satellite
View from above satellite

Ground track
Ground track

The orbit data is extracted from the following two-line orbital elements,

1 20433U 90004B   14260.93717471  .00000198  00000-0  76792-4 0  8146
2 20433 074.0380 037.6098 0040578 050.2531 083.4386 14.35670524291202
Epoch (UTC): 17 September 2014 22:29:31
Eccentricity: 0.0040578
inclination: 74.0380°
perigee height: 744 km
apogee height: 802 km
right ascension of ascending node: 37.6098°
argument of perigee: 50.2531°
revolutions per day: 14.35670524
mean anomaly at epoch: 83.4386°
orbit number at epoch: 29120

The dashed part of the orbit path shows where the satellite is in the earth's shadow,  

DLR